Location: Prairie Dale
(45.6972°N, 104.5033°W)
Time: 06:12:07
(UTC+00:00)

EO-79 - Pass Details

Date: 08 July 2022
Orbit: 588 x 603 km, 98.0° (Epoch: 15 August)

Event Time Altitude Azimuth Distance (km) Brightness Sun altitude
Rises 08:33:47 0° 15° (NNE) 2,862 ? -18.8°
Reaches altitude 10° 08:35:59 10° 19° (NNE) 1,956 ? -18.7°
Maximum altitude 08:40:13 65° 101° (ESE) 665 ? -18.4°
Enters shadow 08:41:52 35° 172° (S) 978 ? -18.2°
